STARLINK-1457, 45674

Orbit data source: Space-Track

STARLINK-1457, 45674 is a payload satellite owned by SpaceX/Seattle (US) in LEO that was launched on Thu, 04 Jun 2020 UTC via an FALCON 9 launch vehicle from the Air Force Eastern Test Range (AFETR). Payload-class satellites include a variety of spacecraft equipped with specific instruments for various scientific and technological missions. These include communications satellites like Starlink; space stations such as the ISS; scientific satellites like the Hubble; Earth observation satellites from companies like Planet Labs, Umbra, and HawkEye 360; GPS; miniature CubeSats for education and research; and military/defense satellites.

Loading next visibility...
Identifier
45674, 2020-035T
Orbit
LEO
Country
Flag of USUS
Related business
Manufacturer
SpaceX/Seattle
Mission
Operational Commercial Communications
Bus & Motor
STARLINK, Unknown motor
Mass
260 kg wet, ~248 kg dry
Launch date (UTC)
2020-06-04 (5 years ago)
Launch vehicle
FALCON 9
Launch site
Air Force Eastern Test Range (AFETR)
Object type
Payload
Rocket body
Debris
Shape & HBR
Box + 1 Pan, 10.1 m
Radar Cross Section
13.562 m², Large (>1 m²)

Expand to show TLE details & history
Last TLE update: 15 hours ago

TLE from 15 hours ago
0 STARLINK-1457
1 45674U 20035T   25287.51322126  .00012282  00000-0  84280-3 0  9992
2 45674  53.0554   2.8305 0001484 109.1410 250.9739 15.06364926296678
Epoch: 2025-10-14T12:19Z
TLE epoch observation values (Epoch: 2025-10-14T12:19:02.316Z)
Latitude
-0.0001°
Longitude
154.7702°
Altitude
548.533 km
Speed
7.589 km/s
True Right ascension
00h 11m 19s
True Declination
0° 00' 00"
Sunlit
Object was in full shadow at epoch
Visualization orbit readout
Latitude
Unknown
Longitude
Unknown
Altitude
Unknown
Speed
Unknown
Apparent Right ascension
Unknown
Apparent Declination
Unknown
Sunlit
N/A
Visualization observer readout
Local Sidereal Time
22:05:53
Azimuth
Unknown
Elevation
Unknown
Doppler factor
Unknown
Orbital elements
Apogee altitude
548.617 km
Perigee altitude
546.562 km
Semi-major axis
6,925.727 km
Eccentricity
0.00015
Inclination
53.0554°
RAAN
2.8305°
Arg. of periapsis
109.141°
True anomaly
250.95782°
Mean anomaly
250.9739°
Eccentric anomaly
250.96586°
Mean motion
3.7657 °/min
Orbital period
95.6 mins
BSTAR
0.0008428
Loading maneuver chart data...
Computing Atmospheric mass density...
Loading historical data...
Loading historical data...
Loading historical data...
Loading historical data...
Loading historical data...
Loading historical data...
Loading historical data...

Documentation

Showing up to 5 results
|